Chitose AB, Japan

4:01 PM JST on June 28, 2017 (GMT +0900)
New Chitose

Weather History for RJCC - December, 2013

Change the Weather History Date:

Sunday, December 15, 2013

  Actual Average Record
Temperature  
Mean Temperature 22 °F -  
Max Temperature 35 °F 29 °F 48 °F (2015)
Min Temperature 8 °F 10 °F 0 °F (2005)
Degree Days  
Heating Degree Days 44    
Moisture  
Dew Point 17 °F    
Average Humidity 71    
Maximum Humidity 87    
Minimum Humidity 52    
Precipitation  
Precipitation 0.00 in - - ()
Sea Level Pressure  
Sea Level Pressure 29.60 in    
Wind  
Wind Speed 7 mph ()    
Max Wind Speed 23 mph    
Max Gust Speed 31 mph    
Visibility 6.0 miles    
Events Snow    
Averages and records for this station are not official NWS values.
T = Trace of Precipitation, MM = Missing Value Source: Averaged Metar Reports

Daily Weather History Graph

Daily Weather History Graph

Search for Another Location

Airport or City:

Trip Planner

Search our weather history database for the weather conditions in past years. The results will help you decide how hot, cold, wet, or windy it might be!

Date:

Astronomy

Dec. 15, 2013 Rise Set
Actual Time 6:56 AM JST 3:59 PM JST
Civil Twilight 6:24 AM JST 4:32 PM JST
Nautical Twilight 5:48 AM JST 5:07 PM JST
Astronomical Twilight 5:14 AM JST 5:42 PM JST
Moon 2:38 PM JST (12/15) 4:35 AM JST (12/15)
Length of Visible Light 10h 07m
Length of Day
9h 03m
Waxing Gibbous, 95% of the Moon is Illuminated
Dec 15
Waxing Gibbous
Dec 17
Full
Dec 25
Last Quarter
Jan 1
New
Jan 8
First Quarter

Hourly Weather History & Observations

Time (JST) Temp. Windchill Dew Point Humidity Pressure Visibility Wind Dir Wind Speed Gust Speed Precip Events Conditions
12:00 AM 10.4 °F - 6.8 °F 85% 29.71 in 6.2 mi SSW 1.2 mph - N/A Snow Light Snow Showers
12:30 AM 8.6 °F - 5.0 °F 85% 29.68 in 6.2 mi Variable 1.2 mph - N/A   Scattered Clouds
1:00 AM 10.4 °F - 6.8 °F 85% 29.68 in 6.2 mi Variable 1.2 mph - N/A Snow Light Snow Showers
1:30 AM 10.4 °F - 6.8 °F 85% 29.68 in 6.2 mi Variable 1.2 mph - N/A Snow Light Snow Showers
2:00 AM 12.2 °F - 6.8 °F 79% 29.68 in 6.2 mi Variable 2.3 mph - N/A Snow Light Snow Showers
2:30 AM 12.2 °F - 8.6 °F 85% 29.68 in 6.2 mi Variable 1.2 mph - N/A Snow Light Snow Showers
3:00 AM 10.4 °F - 6.8 °F 85% 29.68 in 6.2 mi SSW 1.2 mph - N/A Snow Light Snow Showers
3:30 AM 10.4 °F 0.8 °F 6.8 °F 85% 29.68 in 6.2 mi WSW 5.8 mph - N/A Snow Light Snow Showers
4:00 AM 19.4 °F 7.9 °F 12.2 °F 74% 29.65 in 6.2 mi West 10.4 mph - N/A Snow Light Snow Showers
4:30 AM 17.6 °F - 12.2 °F 79% 29.65 in 6.2 mi ENE 2.3 mph - N/A Snow Light Snow Showers
5:00 AM 14.0 °F 6.5 °F 8.6 °F 79% 29.65 in 6.2 mi SW 4.6 mph - N/A   Scattered Clouds
5:30 AM 14.0 °F - 10.4 °F 86% 29.65 in 6.2 mi Variable 2.3 mph - N/A Snow Light Snow Showers
6:00 AM 12.2 °F 4.3 °F 8.6 °F 85% 29.65 in 6.2 mi WNW 4.6 mph - N/A Snow Light Snow Showers
6:30 AM 19.4 °F 7.9 °F 10.4 °F 68% 29.65 in 6.2 mi WNW 10.4 mph - N/A Snow Light Snow Showers
7:00 AM 14.0 °F - 8.6 °F 79% 29.65 in 6.2 mi Variable 1.2 mph - N/A Snow Light Snow Showers
7:30 AM 14.0 °F 3.9 °F 10.4 °F 86% 29.62 in 6.2 mi SSE 6.9 mph - N/A Snow Light Snow Showers
8:00 AM 15.8 °F - 12.2 °F 86% 29.65 in 6.2 mi Variable 1.2 mph - N/A Snow Light Snow Showers
8:30 AM 21.2 °F - 10.4 °F 63% 29.62 in 6.2 mi Variable 2.3 mph - N/A   Partly Cloudy
9:00 AM 26.6 °F 20.0 °F 14.0 °F 59% 29.62 in 6.2 mi NW 5.8 mph - N/A   Partly Cloudy
9:30 AM 24.8 °F 19.1 °F 17.6 °F 74% 29.62 in 6.2 mi ESE 4.6 mph - N/A   Partly Cloudy
10:00 AM 28.4 °F 18.5 °F 17.6 °F 64% 29.62 in 6.2 mi NNW 11.5 mph - N/A   Partly Cloudy
10:30 AM 30.2 °F 19.8 °F 21.2 °F 69% 29.62 in 6.2 mi NNW 13.8 mph - N/A   Scattered Clouds
11:00 AM 32.0 °F 23.6 °F 19.4 °F 60% 29.59 in 6.2 mi NNW 10.4 mph - N/A   Partly Cloudy
11:30 AM 32.0 °F 21.6 °F 21.2 °F 64% 29.59 in 6.2 mi North 15.0 mph - N/A   Partly Cloudy
12:00 PM 32.0 °F 20.1 °F 23.0 °F 69% 29.59 in 6.2 mi NNW 19.6 mph - N/A Snow Light Snow Showers
12:30 PM 32.0 °F 19.5 °F 21.2 °F 64% 29.56 in 6.2 mi NNW 21.9 mph - N/A   Scattered Clouds
1:00 PM 32.0 °F 20.5 °F 23.0 °F 69% 29.56 in 6.2 mi NNW 18.4 mph - N/A   Partly Cloudy
1:30 PM 32.0 °F 21.6 °F 21.2 °F 64% 29.56 in 6.2 mi North 15.0 mph - N/A   Scattered Clouds
2:00 PM 32.0 °F 22.5 °F 23.0 °F 69% 29.56 in 6.2 mi North 12.7 mph - N/A   Partly Cloudy
2:30 PM 32.0 °F 22.5 °F 23.0 °F 69% 29.56 in 6.2 mi North 12.7 mph - N/A   Partly Cloudy
3:00 PM 30.2 °F 21.3 °F 21.2 °F 69% 29.56 in 6.2 mi NNW 10.4 mph - N/A   Partly Cloudy
3:30 PM 32.0 °F 26.4 °F 21.2 °F 64% 29.56 in 6.2 mi NNW 5.8 mph - N/A   Partly Cloudy
4:00 PM 33.8 °F 26.4 °F 17.6 °F 52% 29.56 in 6.2 mi WNW 9.2 mph - N/A   Mostly Cloudy
4:30 PM 33.8 °F 23.9 °F 17.6 °F 52% 29.56 in 6.2 mi NW 15.0 mph - N/A   Mostly Cloudy
5:00 PM 33.8 °F 24.3 °F 17.6 °F 52% 29.56 in 6.2 mi NW 13.8 mph - N/A   Mostly Cloudy
5:30 PM 32.0 °F 23.6 °F 19.4 °F 60% 29.56 in 6.2 mi NNW 10.4 mph - N/A   Mostly Cloudy
6:00 PM 32.0 °F 23.0 °F 19.4 °F 60% 29.56 in 6.2 mi NW 11.5 mph - N/A   Partly Cloudy
6:30 PM 32.0 °F 23.6 °F 19.4 °F 60% 29.56 in 6.2 mi WNW 10.4 mph - N/A   Partly Cloudy
7:00 PM 32.0 °F 24.2 °F 21.2 °F 64% 29.56 in 6.2 mi West 9.2 mph - N/A   Partly Cloudy
7:30 PM 32.0 °F 23.6 °F 21.2 °F 64% 29.53 in 6.2 mi WNW 10.4 mph - N/A   Partly Cloudy
8:00 PM 32.0 °F 22.1 °F 23.0 °F 69% 29.53 in 6.2 mi NW 13.8 mph - N/A   Partly Cloudy
8:30 PM 32.0 °F 22.5 °F 23.0 °F 69% 29.53 in 6.2 mi NW 12.7 mph - N/A   Scattered Clouds
9:00 PM 33.8 °F 25.8 °F 23.0 °F 65% 29.53 in 6.2 mi NW 10.4 mph - N/A   Scattered Clouds
9:30 PM 33.8 °F 24.8 °F 23.0 °F 65% 29.53 in 6.2 mi NW 12.7 mph - N/A   Scattered Clouds
10:00 PM 33.8 °F 23.2 °F 24.8 °F 70% 29.53 in 6.2 mi NW 17.3 mph - N/A Snow Light Snow Showers
10:10 PM 33.8 °F 22.5 °F 24.8 °F 70% 29.53 in 6.2 mi NW 19.6 mph 31.1 mph N/A Snow Light Snow Showers
10:30 PM 33.8 °F 22.8 °F 24.8 °F 70% 29.50 in 6.2 mi NW 18.4 mph - N/A Snow Light Snow Showers
11:00 PM 35.6 °F 24.0 °F 24.8 °F 65% 29.50 in 6.2 mi NW 23.0 mph - N/A Snow Light Snow Showers
11:30 PM 33.8 °F 21.9 °F 28.4 °F 81% 29.53 in 1.6 mi WNW 21.9 mph - N/A Snow Light Snow Showers
11:42 PM 33.8 °F 22.8 °F 30.2 °F 87% 29.53 in 0.6 mi NW 18.4 mph - N/A Snow Snow Showers